Weather History for Lorain / Elyria, OH

Change the Weather History Date:

Saturday, February 16, 2013

  Actual Average (KCLE) Record (KCLE)
Temperature  
Mean Temperature 24 °F 31 °F  
Max Temperature 28 °F 38 °F 72 °F (1883)
Min Temperature 19 °F 24 °F -8 °F (1904)
Degree Days  
Heating Degree Days 42 34  
Month to date heating degree days 568  
Since 1 July heating degree days 3820  
Cooling Degree Days 0 0  
Month to date cooling degree days 0  
Year to date cooling degree days 0  
Moisture  
Dew Point 18 °F    
Average Humidity 79    
Maximum Humidity 93    
Minimum Humidity 55    
Precipitation  
Precipitation 0.07 in 0.09 in 2.04 in (1976)
Month to date precipitation 1.30  
Year to date precipitation 4.02  
Snow  
Snow 0.00 in 0.60 in - ()
Month to date snowfall 8.7  
Since 1 July snowfall 46.0  
Snow Depth -    
Sea Level Pressure  
Sea Level Pressure 30.01 in    
Wind  
Wind Speed 8 mph (NW)    
Max Wind Speed 16 mph    
Max Gust Speed 23 mph    
Visibility 4 miles    
Events Fog , Snow    
T = Trace of Precipitation, MM = Missing Value Source: NWS Daily Summary

Daily Weather History Graph

Daily Weather History Graph

Search for Another Location

Airport:

Trip Planner

Search our weather history database for the weather conditions in past years. The results will help you decide how hot, cold, wet, or windy it might be!

Date:

Astronomy

Feb. 16, 2013 Rise Set
Actual Time 7:21 AM EST 6:04 PM EST
Civil Twilight 6:53 AM EST 6:32 PM EST
Nautical Twilight 6:21 AM EST 7:04 PM EST
Astronomical Twilight 5:49 AM EST 7:36 PM EST
Moon 10:29 AM EST (2/16) 12:07 AM EST (2/16)
Length of Visible Light 11h 38m
Length of Day
10h 42m
Waxing Crescent, 39% of the Moon is Illuminated
Feb 16
Waxing Crescent
Feb 17
First Quarter
Feb 25
Full
Mar 4
Last Quarter
Mar 11
New

Hourly Weather History & Observations

Time (EST) Temp. Windchill Dew Point Humidity Pressure Visibility Wind Dir Wind Speed Gust Speed Precip Events Conditions
12:53 AM 28.0 °F 19.3 °F 15.1 °F 58% 30.11 in 10.0 mi NNW 9.2 mph - N/A   Overcast
1:53 AM 27.0 °F 19.5 °F 14.0 °F 58% 30.10 in 10.0 mi NW 6.9 mph - N/A   Overcast
2:31 AM 26.6 °F 16.2 °F 19.4 °F 74% 30.07 in 2.5 mi WNW 11.5 mph - 0.00 in Snow Light Snow
2:38 AM 26.6 °F 16.8 °F 19.4 °F 74% 30.07 in 4.0 mi NW 10.4 mph - 0.00 in Snow Light Snow
2:53 AM 25.0 °F 16.3 °F 19.9 °F 81% 30.10 in 3.0 mi NW 8.1 mph - 0.00 in Snow Light Snow
3:02 AM 24.8 °F 16.9 °F 19.4 °F 80% 30.07 in 3.0 mi NW 6.9 mph - 0.00 in Snow Light Snow
3:53 AM 23.0 °F 17.0 °F 18.0 °F 81% 30.09 in 10.0 mi WNW 4.6 mph - 0.00 in   Mostly Cloudy
4:53 AM 21.9 °F 15.7 °F 14.0 °F 72% 30.07 in 10.0 mi West 4.6 mph - N/A   Clear
5:53 AM 21.0 °F 13.4 °F 14.0 °F 74% 30.08 in 10.0 mi West 5.8 mph - N/A   Clear
6:53 AM 21.0 °F 14.6 °F 12.0 °F 68% 30.07 in 10.0 mi West 4.6 mph - N/A   Clear
7:53 AM 19.9 °F 14.9 °F 14.0 °F 78% 30.07 in 10.0 mi WSW 3.5 mph - N/A   Mostly Cloudy
8:53 AM 24.1 °F 17.0 °F 15.1 °F 69% 30.07 in 10.0 mi West 5.8 mph - N/A   Clear
9:53 AM 25.0 °F 17.1 °F 12.9 °F 60% 30.07 in 10.0 mi WSW 6.9 mph - N/A   Overcast
10:53 AM 26.1 °F 20.5 °F 12.0 °F 55% 30.06 in 10.0 mi West 4.6 mph - N/A   Mostly Cloudy
11:53 AM 27.0 °F 20.5 °F 12.9 °F 56% 30.05 in 10.0 mi Variable 5.8 mph - N/A   Overcast
12:53 PM 27.0 °F 21.6 °F 12.9 °F 56% 30.02 in 10.0 mi SW 4.6 mph - 0.00 in   Overcast
1:04 PM 26.6 °F 22.6 °F 15.8 °F 64% 29.99 in 2.5 mi WNW 3.5 mph - 0.00 in Snow Light Snow
1:23 PM 24.8 °F 20.5 °F 15.8 °F 69% 29.98 in 1.2 mi Variable 3.5 mph - 0.00 in Snow Light Snow
1:30 PM 26.6 °F 22.6 °F 15.8 °F 64% 29.98 in 3.0 mi Variable 3.5 mph - 0.00 in Snow Light Snow
1:53 PM 26.1 °F 19.4 °F 17.1 °F 69% 30.00 in 9.0 mi North 5.8 mph - 0.00 in   Overcast
2:10 PM 24.8 °F 16.9 °F 19.4 °F 80% 29.97 in 2.5 mi North 6.9 mph - 0.00 in Snow Light Snow
2:16 PM 24.8 °F 17.9 °F 19.4 °F 80% 29.97 in 0.8 mi North 5.8 mph - 0.00 in Snow Light Snow
2:29 PM 24.8 °F 17.9 °F 21.2 °F 86% 29.97 in 0.5 mi North 5.8 mph - 0.00 in Fog , Snow Snow
2:40 PM 24.8 °F 20.5 °F 19.4 °F 80% 29.96 in 2.0 mi NNE 3.5 mph - 0.00 in Snow Light Snow
2:48 PM 26.6 °F 22.6 °F 21.2 °F 80% 29.96 in 7.0 mi East 3.5 mph - 0.00 in Snow Light Snow
2:53 PM 26.1 °F 21.9 °F 21.0 °F 81% 29.99 in 7.0 mi ENE 3.5 mph - 0.00 in Snow Light Snow
3:03 PM 24.8 °F - 19.4 °F 80% 29.96 in 7.0 mi Calm Calm - 0.00 in   Overcast
3:28 PM 24.8 °F 16.1 °F 19.4 °F 80% 29.96 in 1.8 mi NW 8.1 mph - 0.00 in Snow Light Snow
3:32 PM 24.8 °F 15.3 °F 19.4 °F 80% 29.96 in 0.8 mi WNW 9.2 mph - 0.01 in Snow Light Snow
3:40 PM 24.8 °F 17.9 °F 21.2 °F 86% 29.97 in 0.2 mi NW 5.8 mph - 0.01 in Fog , Snow Heavy Snow
3:53 PM 25.0 °F 17.1 °F 21.0 °F 85% 30.00 in 0.8 mi NW 6.9 mph - 0.02 in Snow Light Snow
4:00 PM 24.8 °F 16.9 °F 19.4 °F 80% 29.97 in 1.5 mi NW 6.9 mph - 0.00 in Snow Light Snow
4:05 PM 24.8 °F 16.1 °F 19.4 °F 80% 29.96 in 3.0 mi NW 8.1 mph - 0.00 in Snow Light Snow
4:15 PM 24.8 °F 17.9 °F 17.6 °F 74% 29.97 in 10.0 mi NW 5.8 mph - 0.00 in   Mostly Cloudy
4:26 PM 24.8 °F 16.9 °F 19.4 °F 80% 29.97 in 7.0 mi NNW 6.9 mph - 0.00 in   Mostly Cloudy
4:41 PM 24.8 °F 15.3 °F 19.4 °F 80% 29.97 in 3.0 mi NW 9.2 mph - 0.00 in Snow Light Snow
4:53 PM 24.1 °F 14.4 °F 19.9 °F 84% 30.01 in 5.0 mi North 9.2 mph - 0.00 in   Overcast
5:15 PM 24.8 °F 15.3 °F 19.4 °F 80% 29.98 in 2.5 mi NNW 9.2 mph - 0.00 in Snow Light Snow
5:23 PM 23.0 °F 13.9 °F 19.4 °F 86% 29.98 in 1.2 mi NNW 8.1 mph - 0.00 in Snow Light Snow
5:35 PM 23.0 °F 14.7 °F 17.6 °F 80% 29.98 in 2.5 mi NNW 6.9 mph - 0.00 in Snow Light Snow
5:46 PM 23.0 °F 15.8 °F 19.4 °F 86% 29.98 in 3.0 mi NNW 5.8 mph - 0.00 in   Overcast
5:53 PM 23.0 °F 17.0 °F 18.0 °F 81% 30.02 in 3.0 mi NNW 4.6 mph - 0.00 in Snow Light Snow
6:25 PM 23.0 °F 15.8 °F 17.6 °F 80% 29.99 in 2.5 mi NW 5.8 mph - 0.00 in Snow Light Snow
6:43 PM 23.0 °F 13.9 °F 19.4 °F 86% 30.00 in 0.8 mi NW 8.1 mph - 0.01 in Snow Light Snow
6:53 PM 21.9 °F 11.0 °F 19.0 °F 89% 30.04 in 0.8 mi NW 10.4 mph 20.7 mph 0.01 in Snow Light Snow
7:06 PM 21.2 °F 9.5 °F 17.6 °F 86% 30.00 in 0.8 mi NW 11.5 mph 19.6 mph 0.00 in Snow Light Snow
7:25 PM 21.2 °F 13.6 °F 17.6 °F 86% 30.00 in 1.2 mi West 5.8 mph - 0.00 in Snow Light Snow
7:33 PM 21.2 °F 10.9 °F 17.6 °F 86% 30.00 in 3.0 mi WNW 9.2 mph - 0.00 in Snow Light Snow
7:53 PM 21.9 °F 13.4 °F 18.0 °F 85% 30.04 in 3.0 mi West 6.9 mph - 0.00 in Snow Light Snow
7:56 PM 21.2 °F 11.7 °F 17.6 °F 86% 30.00 in 1.8 mi West 8.1 mph - 0.00 in Snow Light Snow
8:02 PM 21.2 °F 12.6 °F 17.6 °F 86% 30.00 in 0.8 mi West 6.9 mph - 0.01 in Snow Light Snow
8:19 PM 21.2 °F 10.9 °F 17.6 °F 86% 30.00 in 1.0 mi WNW 9.2 mph - 0.01 in Snow Light Snow
8:22 PM 21.2 °F 11.7 °F 19.4 °F 93% 30.00 in 0.8 mi WNW 8.1 mph - 0.01 in Snow Light Snow
8:38 PM 21.2 °F 7.3 °F 17.6 °F 86% 30.00 in 0.2 mi WNW 16.1 mph 23.0 mph 0.01 in Fog , Snow Heavy Snow
8:53 PM 21.0 °F 7.6 °F 18.0 °F 88% 30.04 in 0.2 mi NW 15.0 mph - 0.02 in Fog , Snow Heavy Snow
9:02 PM 21.2 °F 9.5 °F 17.6 °F 86% 30.00 in 0.5 mi NW 11.5 mph - 0.00 in Fog , Snow Snow
9:53 PM 21.0 °F 8.6 °F 17.1 °F 85% 30.04 in 1.0 mi NW 12.7 mph - 0.01 in Snow Light Snow
10:01 PM 21.2 °F 8.3 °F 17.6 °F 86% 30.01 in 0.5 mi NNW 13.8 mph - 0.00 in Fog , Snow Snow
10:06 PM 21.2 °F 7.8 °F 17.6 °F 86% 30.01 in 0.2 mi NNW 15.0 mph 19.6 mph 0.01 in Fog , Snow Heavy Snow
10:25 PM 19.4 °F 8.6 °F 17.6 °F 93% 30.01 in 0.8 mi NW 9.2 mph - 0.01 in Snow Light Snow
10:32 PM 19.4 °F 8.6 °F 15.8 °F 86% 30.01 in 2.0 mi NW 9.2 mph - 0.01 in Snow Light Snow
10:40 PM 19.4 °F 5.5 °F 15.8 °F 86% 30.01 in 2.0 mi NW 15.0 mph 18.4 mph 0.01 in Snow Light Snow
10:42 PM 19.4 °F 6.0 °F 15.8 °F 86% 30.01 in 1.8 mi NW 13.8 mph - 0.01 in Snow Light Snow
10:53 PM 19.9 °F 7.3 °F 16.0 °F 85% 30.04 in 1.0 mi NW 12.7 mph - 0.01 in Snow Light Snow
11:12 PM 19.4 °F 6.6 °F 15.8 °F 86% 30.00 in 0.8 mi WNW 12.7 mph - 0.00 in Snow Light Snow
11:32 PM 19.4 °F 7.2 °F 15.8 °F 86% 30.00 in 1.0 mi NW 11.5 mph - 0.00 in Snow Light Snow
11:53 PM 19.0 °F 8.2 °F 15.1 °F 85% 30.04 in 1.5 mi WNW 9.2 mph - 0.00 in Snow Light Snow